Farmingdale, NY

6:38 AM EDT on July 21, 2017 (GMT -0400)
Republic

Weather History for KFRG - December, 2012

Change the Weather History Date:

Sunday, December 16, 2012

  Actual Average Record
Temperature  
Mean Temperature 44 °F -  
Max Temperature 46 °F 42 °F 55 °F (2011)
Min Temperature 41 °F 29 °F 18 °F (2016)
Degree Days  
Heating Degree Days 22    
Moisture  
Dew Point 41 °F    
Average Humidity 88    
Maximum Humidity 96    
Minimum Humidity 76    
Precipitation  
Precipitation 0.09 in - - ()
Sea Level Pressure  
Sea Level Pressure 30.05 in    
Wind  
Wind Speed 10 mph (East)    
Max Wind Speed 21 mph    
Max Gust Speed 28 mph    
Visibility 6 miles    
Events Rain    
Averages and records for this station are not official NWS values.
T = Trace of Precipitation, MM = Missing Value Source: NWS Daily Summary

Daily Weather History Graph

Daily Weather History Graph

Search for Another Location

Airport or City:

Trip Planner

Search our weather history database for the weather conditions in past years. The results will help you decide how hot, cold, wet, or windy it might be!

Date:

Astronomy

Dec. 16, 2012 Rise Set
Actual Time 7:11 AM EST 4:27 PM EST
Civil Twilight 6:40 AM EST 4:58 PM EST
Nautical Twilight 6:06 AM EST 5:32 PM EST
Astronomical Twilight 5:32 AM EST 6:06 PM EST
Moon 9:42 AM EST (12/16) 8:39 PM EST (12/16)
Length of Visible Light 10h 17m
Length of Day
9h 15m
Waxing Crescent, 16% of the Moon is Illuminated
Dec 16
Waxing Crescent
Dec 20
First Quarter
Dec 28
Full
Jan 4
Last Quarter
Jan 11
New

Hourly Weather History & Observations

Time (EST) Temp. Windchill Dew Point Humidity Pressure Visibility Wind Dir Wind Speed Gust Speed Precip Events Conditions
12:53 AM 41.0 °F 39.0 °F 34.0 °F 76% 30.22 in 10.0 mi NE 3.5 mph - N/A   Mostly Cloudy
1:33 AM 41.0 °F 38.0 °F 35.6 °F 81% 30.21 in 10.0 mi ENE 4.6 mph - N/A   Overcast
1:53 AM 42.1 °F 38.4 °F 35.1 °F 76% 30.22 in 10.0 mi ENE 5.8 mph - N/A   Overcast
2:53 AM 42.1 °F 37.7 °F 35.1 °F 76% 30.21 in 10.0 mi East 6.9 mph - N/A   Overcast
3:53 AM 41.0 °F 36.4 °F 35.1 °F 79% 30.17 in 10.0 mi East 6.9 mph - N/A   Mostly Cloudy
4:01 AM 41.0 °F 36.4 °F 35.6 °F 81% 30.16 in 10.0 mi East 6.9 mph - N/A   Mostly Cloudy
4:53 AM 42.1 °F 39.2 °F 36.0 °F 79% 30.16 in 10.0 mi ENE 4.6 mph - N/A   Overcast
5:10 AM 42.8 °F 40.1 °F 35.6 °F 76% 30.16 in 10.0 mi East 4.6 mph - N/A   Overcast
5:53 AM 43.0 °F 39.5 °F 37.0 °F 80% 30.16 in 10.0 mi East 5.8 mph - N/A   Overcast
6:53 AM 46.0 °F 39.9 °F 39.9 °F 79% 30.14 in 10.0 mi East 13.8 mph 21.9 mph N/A   Overcast
7:53 AM 46.0 °F 39.3 °F 39.9 °F 79% 30.14 in 10.0 mi East 16.1 mph - N/A   Overcast
8:53 AM 46.0 °F 39.6 °F 39.9 °F 79% 30.13 in 10.0 mi East 15.0 mph 21.9 mph N/A   Overcast
9:42 AM 44.6 °F 37.2 °F 41.0 °F 87% 30.13 in 8.0 mi East 17.3 mph 24.2 mph N/A   Overcast
9:53 AM 45.0 °F 38.9 °F 41.0 °F 86% 30.13 in 10.0 mi ESE 12.7 mph - N/A   Overcast
10:11 AM 46.4 °F 39.8 °F 41.0 °F 81% 30.12 in 10.0 mi East 16.1 mph 23.0 mph N/A   Overcast
10:53 AM 46.9 °F - 41.0 °F 80% 30.12 in 10.0 mi East 16.1 mph 27.6 mph N/A   Overcast
11:21 AM 46.4 °F 39.2 °F 42.8 °F 87% 30.09 in 10.0 mi East 18.4 mph 25.3 mph N/A   Overcast
11:53 AM 46.0 °F 39.6 °F 42.1 °F 86% 30.07 in 10.0 mi East 15.0 mph 27.6 mph N/A   Overcast
12:53 PM 45.0 °F 36.9 °F 43.0 °F 93% 30.04 in 3.0 mi East 20.7 mph 27.6 mph 0.00 in Rain Light Rain
1:00 PM 44.6 °F 37.4 °F 42.8 °F 93% 30.04 in 2.0 mi East 16.1 mph 27.6 mph 0.00 in Rain Light Rain
1:38 PM 44.6 °F 37.8 °F 42.8 °F 93% 30.02 in 1.5 mi East 15.0 mph - 0.00 in Rain Light Rain
1:53 PM 45.0 °F 37.6 °F 43.0 °F 93% 30.02 in 1.8 mi East 17.3 mph 21.9 mph 0.00 in Rain Light Rain
2:05 PM 44.6 °F 38.1 °F 42.8 °F 93% 30.02 in 2.5 mi East 13.8 mph 25.3 mph 0.00 in Rain Light Rain
2:34 PM 44.6 °F 37.4 °F 42.8 °F 93% 30.01 in 1.8 mi East 16.1 mph - 0.01 in Rain Light Rain
2:48 PM 44.6 °F 37.4 °F 42.8 °F 93% 30.01 in 2.0 mi East 16.1 mph 26.5 mph 0.01 in Rain Light Rain
2:53 PM 44.1 °F 37.4 °F 43.0 °F 96% 30.01 in 2.5 mi East 13.8 mph 26.5 mph 0.01 in Rain Light Rain
3:35 PM 44.6 °F 38.4 °F 42.8 °F 93% 30.00 in 3.0 mi East 12.7 mph 20.7 mph 0.01 in Rain Light Rain
3:53 PM 44.1 °F 37.7 °F 43.0 °F 96% 30.00 in 2.0 mi East 12.7 mph 20.7 mph 0.01 in Rain Light Rain
4:01 PM 44.6 °F 37.8 °F 42.8 °F 93% 29.99 in 1.5 mi East 15.0 mph - 0.01 in Rain Light Rain
4:19 PM 44.6 °F 38.8 °F 42.8 °F 93% 29.98 in 2.5 mi East 11.5 mph - 0.01 in Rain Light Rain
4:31 PM 44.6 °F 38.4 °F 42.8 °F 93% 29.98 in 3.0 mi East 12.7 mph 20.7 mph 0.02 in Rain Light Rain
4:53 PM 44.1 °F 37.7 °F 43.0 °F 96% 29.98 in 5.0 mi East 12.7 mph 21.9 mph 0.02 in Rain Light Rain
5:53 PM 44.1 °F 38.6 °F 43.0 °F 96% 29.96 in 3.0 mi ENE 10.4 mph - 0.00 in Rain Light Rain
6:53 PM 44.1 °F 39.0 °F 43.0 °F 96% 29.96 in 4.0 mi NE 9.2 mph - 0.01 in Rain Light Rain
7:35 PM 44.6 °F 38.1 °F 42.8 °F 93% 29.94 in 2.5 mi NE 13.8 mph - 0.01 in Rain Light Rain
7:42 PM 44.6 °F 39.2 °F 42.8 °F 93% 29.94 in 3.0 mi NE 10.4 mph - 0.01 in Rain Light Rain
7:53 PM 44.1 °F 37.7 °F 42.1 °F 93% 29.94 in 4.0 mi NE 12.7 mph - 0.02 in   Overcast
8:53 PM 44.1 °F 38.6 °F 43.0 °F 96% 29.92 in 5.0 mi NE 10.4 mph 19.6 mph N/A   Overcast
9:53 PM 44.1 °F 38.6 °F 42.1 °F 93% 29.92 in 9.0 mi NE 10.4 mph 21.9 mph N/A   Overcast
10:53 PM 44.1 °F 38.1 °F 42.1 °F 93% 29.92 in 4.0 mi NE 11.5 mph - 0.00 in Rain Light Rain
11:53 PM 44.1 °F 37.7 °F 42.1 °F 93% 29.90 in 6.0 mi NE 12.7 mph - 0.02 in Rain Light Rain